Previsão horária em Alimbay

Hoje, 22 Janeiro, Sexta-feira

Tempo Temperatura Precipitação Vento Pressão Humidade
00:00 -26°C° 0 mm 4 m/s 742 mmHg 97%
01:00 -25°C° 0 mm 4 m/s 742 mmHg 97%
02:00 -25°C° 0.1 mm 4 m/s 742 mmHg 97%
03:00 -24°C° 0.1 mm 4 m/s 742 mmHg 97%
04:00 -24°C° 0.1 mm 4 m/s 742 mmHg 96%
05:00 -24°C° 0 mm 4 m/s 742 mmHg 97%
06:00 -25°C° 0 mm 4 m/s 742 mmHg 97%
07:00 -25°C° 0 mm 4 m/s 742 mmHg 97%
08:00 -24°C° 0 mm 4 m/s 742 mmHg 96%
09:00 -24°C° 0 mm 4 m/s 742 mmHg 96%
10:00 -24°C° 0 mm 5 m/s 742 mmHg 95%
11:00 -22°C° 0 mm 5 m/s 742 mmHg 94%
12:00 -21°C° 0 mm 5 m/s 742 mmHg 94%
13:00 -20°C° 0 mm 5 m/s 742 mmHg 93%
14:00 -20°C° 0.1 mm 5 m/s 742 mmHg 93%
15:00 -20°C° 0.1 mm 5 m/s 742 mmHg 94%
16:00 -18°C° 0.1 mm 4 m/s 742 mmHg 95%
17:00 -18°C° 0.2 mm 4 m/s 742 mmHg 95%
18:00 -18°C° 0.2 mm 4 m/s 742 mmHg 95%
19:00 -18°C° 0.2 mm 4 m/s 742 mmHg 95%
20:00 -18°C° 0.2 mm 4 m/s 742 mmHg 95%
21:00 -18°C° 0.2 mm 4 m/s 742 mmHg 95%
22:00 -17°C° 0.2 mm 3 m/s 742 mmHg 95%
23:00 -17°C° 0.1 mm 3 m/s 742 mmHg 96%

Amanhã, 23 Janeiro, Sábado

Tempo Temperatura Precipitação Vento Pressão Humidade
00:00 -18°C° 0.1 mm 3 m/s 742 mmHg 96%
01:00 -18°C° 0.1 mm 3 m/s 743 mmHg 96%
02:00 -19°C° 0 mm 3 m/s 743 mmHg 97%
03:00 -22°C° 0 mm 3 m/s 743 mmHg 98%
04:00 -23°C° 0 mm 3 m/s 744 mmHg 99%
05:00 -24°C° 0 mm 3 m/s 745 mmHg 98%
06:00 -25°C° 0 mm 3 m/s 746 mmHg 98%
07:00 -26°C° 0 mm 3 m/s 746 mmHg 97%
08:00 -26°C° 0 mm 3 m/s 747 mmHg 96%
09:00 -25°C° 0 mm 3 m/s 748 mmHg 96%
10:00 -25°C° 0 mm 3 m/s 749 mmHg 95%
11:00 -24°C° 0 mm 2 m/s 749 mmHg 94%
12:00 -23°C° 0 mm 2 m/s 750 mmHg 93%
13:00 -21°C° 0 mm 2 m/s 751 mmHg 93%
14:00 -23°C° 0 mm 2 m/s 751 mmHg 93%
15:00 -24°C° 0 mm 2 m/s 751 mmHg 93%
16:00 -24°C° 0 mm 2 m/s 751 mmHg 93%
17:00 -24°C° 0 mm 2 m/s 752 mmHg 93%
18:00 -25°C° 0 mm 3 m/s 752 mmHg 93%
19:00 -25°C° 0 mm 3 m/s 752 mmHg 93%
20:00 -25°C° 0 mm 3 m/s 752 mmHg 93%
21:00 -25°C° 0 mm 4 m/s 752 mmHg 93%
22:00 -24°C° 0 mm 4 m/s 752 mmHg 93%
23:00 -25°C° 0 mm 5 m/s 752 mmHg 94%

Depois de amanhã, 24 Janeiro, Domingo

Tempo Temperatura Precipitação Vento Pressão Humidade
00:00 -24°C° 0 mm 5 m/s 752 mmHg 95%
01:00 -24°C° 0 mm 5 m/s 751 mmHg 95%
02:00 -22°C° 0.2 mm 5 m/s 751 mmHg 95%
03:00 -21°C° 0.2 mm 5 m/s 751 mmHg 95%
04:00 -21°C° 0.2 mm 6 m/s 750 mmHg 95%
05:00 -20°C° 0.3 mm 6 m/s 750 mmHg 95%
06:00 -18°C° 0.3 mm 6 m/s 750 mmHg 94%
07:00 -17°C° 0.3 mm 5 m/s 750 mmHg 94%
08:00 -15°C° 0.3 mm 5 m/s 750 mmHg 94%
09:00 -14°C° 0.3 mm 5 m/s 750 mmHg 94%
10:00 -13°C° 0.3 mm 5 m/s 750 mmHg 94%
11:00 -11°C° 0.2 mm 5 m/s 750 mmHg 94%
12:00 -10°C° 0.2 mm 5 m/s 750 mmHg 94%
13:00 -8°C° 0.2 mm 5 m/s 749 mmHg 94%
14:00 -8°C° 0.1 mm 5 m/s 749 mmHg 94%
15:00 -7°C° 0.1 mm 5 m/s 749 mmHg 94%
16:00 -7°C° 0.1 mm 5 m/s 749 mmHg 94%
17:00 -7°C° 0 mm 5 m/s 749 mmHg 94%
18:00 -7°C° 0 mm 4 m/s 750 mmHg 94%
19:00 -7°C° 0 mm 4 m/s 750 mmHg 95%
20:00 -7°C° 0 mm 4 m/s 750 mmHg 95%
21:00 -7°C° 0 mm 5 m/s 750 mmHg 95%
22:00 -6°C° 0 mm 5 m/s 750 mmHg 95%
23:00 -6°C° 0.1 mm 5 m/s 750 mmHg 95%

25 Janeiro, Segunda-feira

Tempo Temperatura Precipitação Vento Pressão Humidade
00:00 -6°C° 0.1 mm 5 m/s 750 mmHg 95%
01:00 -5°C° 0.1 mm 4 m/s 751 mmHg 96%
02:00 -5°C° 0.1 mm 4 m/s 751 mmHg 96%
03:00 -5°C° 0.1 mm 4 m/s 751 mmHg 96%
04:00 -5°C° 0.1 mm 4 m/s 751 mmHg 96%
05:00 -7°C° 0.1 mm 4 m/s 751 mmHg 96%
06:00 -7°C° 0.1 mm 4 m/s 751 mmHg 96%
07:00 -7°C° 0.1 mm 3 m/s 751 mmHg 96%
08:00 -6°C° 0 mm 3 m/s 751 mmHg 96%
09:00 -6°C° 0 mm 3 m/s 752 mmHg 96%
10:00 -6°C° 0 mm 3 m/s 752 mmHg 96%
11:00 -6°C° 0 mm 3 m/s 752 mmHg 96%
12:00 -6°C° 0 mm 3 m/s 752 mmHg 95%
13:00 -6°C° 0 mm 3 m/s 752 mmHg 95%
14:00 -6°C° 0 mm 3 m/s 752 mmHg 96%
15:00 -7°C° 0 mm 3 m/s 752 mmHg 96%
16:00 -8°C° 0 mm 3 m/s 752 mmHg 96%
17:00 -7°C° 0 mm 3 m/s 752 mmHg 96%
18:00 -6°C° 0 mm 2 m/s 752 mmHg 96%
19:00 -6°C° 0 mm 2 m/s 752 mmHg 96%
20:00 -6°C° 0 mm 2 m/s 752 mmHg 96%
21:00 -5°C° 0 mm 2 m/s 752 mmHg 95%
22:00 -3°C° 0 mm 1 m/s 752 mmHg 95%
23:00 -3°C° 0 mm 1 m/s 752 mmHg 94%

26 Janeiro, Terça-feira

Tempo Temperatura Precipitação Vento Pressão Humidade
00:00 -3°C° 0 mm 1 m/s 752 mmHg 94%
01:00 -3°C° 0 mm 1 m/s 752 mmHg 94%
02:00 -3°C° 0 mm 1 m/s 752 mmHg 94%
03:00 -5°C° 0 mm 2 m/s 752 mmHg 94%
04:00 -5°C° 0 mm 2 m/s 752 mmHg 95%
05:00 -5°C° 0 mm 2 m/s 752 mmHg 95%
06:00 -5°C° 0 mm 2 m/s 752 mmHg 95%
07:00 -5°C° 0 mm 2 m/s 752 mmHg 95%
08:00 -5°C° 0 mm 2 m/s 752 mmHg 95%
09:00 -5°C° 0 mm 2 m/s 753 mmHg 95%
10:00 -5°C° 0 mm 2 m/s 753 mmHg 94%
11:00 -7°C° 0 mm 3 m/s 753 mmHg 94%
12:00 -7°C° 0 mm 3 m/s 753 mmHg 94%
13:00 -7°C° 0 mm 3 m/s 753 mmHg 94%
14:00 -8°C° 0 mm 3 m/s 752 mmHg 94%
15:00 -9°C° 0 mm 3 m/s 752 mmHg 93%
16:00 -10°C° 0 mm 3 m/s 752 mmHg 93%
17:00 -12°C° 0 mm 3 m/s 752 mmHg 91%
18:00 -13°C° 0 mm 3 m/s 752 mmHg 90%
19:00 -13°C° 0 mm 3 m/s 752 mmHg 89%
20:00 -14°C° 0 mm 3 m/s 753 mmHg 87%
21:00 -14°C° 0 mm 3 m/s 753 mmHg 85%
22:00 -14°C° 0 mm 3 m/s 753 mmHg 84%
23:00 -14°C° 0 mm 3 m/s 753 mmHg 84%

27 Janeiro, Quarta-feira

Tempo Temperatura Precipitação Vento Pressão Humidade
00:00 -15°C° 0 mm 3 m/s 753 mmHg 84%
01:00 -15°C° 0 mm 3 m/s 753 mmHg 83%
02:00 -15°C° 0 mm 3 m/s 753 mmHg 84%
03:00 -15°C° 0 mm 3 m/s 753 mmHg 84%
04:00 -15°C° 0 mm 3 m/s 753 mmHg 84%
05:00 -15°C° 0 mm 3 m/s 753 mmHg 85%
06:00 -15°C° 0 mm 3 m/s 753 mmHg 85%
07:00 -15°C° 0 mm 3 m/s 753 mmHg 85%
08:00 -14°C° 0 mm 3 m/s 753 mmHg 86%
09:00 -14°C° 0 mm 3 m/s 753 mmHg 87%
10:00 -13°C° 0 mm 3 m/s 753 mmHg 88%
11:00 -12°C° 0 mm 4 m/s 753 mmHg 89%
12:00 -11°C° 0 mm 4 m/s 753 mmHg 89%
13:00 -10°C° 0 mm 4 m/s 753 mmHg 90%
14:00 -11°C° 0 mm 4 m/s 752 mmHg 90%
15:00 -11°C° 0 mm 4 m/s 752 mmHg 91%
16:00 -12°C° 0 mm 4 m/s 752 mmHg 92%
17:00 -14°C° 0 mm 4 m/s 752 mmHg 92%
18:00 -14°C° 0 mm 4 m/s 752 mmHg 92%
19:00 -15°C° 0 mm 4 m/s 752 mmHg 92%
20:00 -15°C° 0 mm 4 m/s 752 mmHg 92%
21:00 -15°C° 0 mm 4 m/s 752 mmHg 93%
22:00 -15°C° 0 mm 4 m/s 752 mmHg 93%
23:00 -15°C° 0 mm 4 m/s 752 mmHg 93%
Mostrar mais

Necessitamos do seu Consentimento

A Meteoprog e os seus Fornecedores de Serviços podem armazenar e aceder a dados pessoais como cookies, identificadores do dispositivo ou outras tecnologias semelhantes existentes no seu dispositivo e processar estes dados para personalizar conteúdos e anúncios, assim como funcionalidades nas redes sociais e análise de tráfego.

  • Armazenar e/ou aceder a informações no seu dispositivo

    Os cookies, identificadores do dispositivo ou outras informações podem ser armazenados ou acedidos no seu dispositivo, para os fins acima indicados.

  • Anúncios e conteúdos personalizados, medição de anúncios e conteúdos, dados sobre o público-alvo e desenvolvimento de produtos

    Os anúncios e os conteúdos podem ser personalizados com base num perfil. Podem ser adicionados dados adicionais para uma maior personalização dos anúncios e dos conteúdos. A eficácia dos anúncios e dos conteúdos pode ser medida. Podem ser obtidas informações sobre o público que visualizou os anúncios e os conteúdos. Estes dados podem ser usados para desenvolver ou melhorar sistemas, softwares ou a experiência do utilizador.

Ao clicar em "Eu concordo”, permitirá o uso de cookies, identificadores do dispositivo e web beacons mencionados ou outras tecnologias semelhantes. As configurações do navegador do seu dispositivo podem ser alteradas.

Para certos fins, podem ser invocados interesses legítimos ao invés de consentimento. Pode ler mais informação sobre este assunto na nossa Política de Privacidade e Cookies.